sat.trackr.live / text

‹ back to catalog

CAPELLA-13 (ACADIA-3)

NORAD 60419 · 2024-142A

PAYLOAD ACTIVE UNKNOWN

§ Identity

Operator
Country
US
Launch date
2024-08-11
Launch site
RLLB
Launch vehicle
Mass (kg)
RCS (m²)

External: N2YO · Heavens-Above · Gunter

§ Orbital elements

Epoch: 2026-05-25T01:19:08.016096Z

Period
96.80 min
Inclination
53.0030°
Eccentricity
0.0001335
Mean motion
14.87668570 rev/d
Perigee alt
604.3 km
Apogee alt
606.2 km
Semi-major
6,983.4 km
B*
3.5788e-4
RAAN
158.5393°
Arg perigee
87.2476°
Mean anomaly
272.8657°
Rev number
9,696

§ Raw data

CAPELLA-13 (ACADIA-3)1 60419U 24142A   26145.05495389  .00003054  00000+0  35788-3 0  99992 60419  53.0030 158.5393 0001335  87.2476 272.8657 14.87668570 96962

JSON: /api/v1/satellites/60419 · /tle

For live sub-satellite position, see the globe view (requires WebGL).

§ Visibility from observer

Set your observer location to see the next 7 days of passes ≥ 10°. The values pass through the URL so the page stays shareable.

No JS? Fill the form by hand. The geolocation button needs JavaScript.